{"data":{"norad_id":45663,"intl_designator":"2020-035G","name":"STARLINK-1446","alt_names":[],"object_type":"PAYLOAD","status":"ACTIVE","operator":null,"country":"US","launch_date":"2020-06-04","launch_site_code":"AFETR","launch_vehicle":null,"mission":null,"orbit_class":"UNKNOWN","rcs_meters":null,"size_class":null,"mass_kg":null,"dimensions":null,"purposes":["comms"],"wikipedia_slug":null,"has_3d_model":false,"image_url":null,"decayed_at":null,"tle_current":{"epoch":"2026-05-25T02:14:09.223584Z","epoch_age_seconds":62944,"freshness":"FRESH","line1":"1 45663U 20035G   26145.09316231  .00019243  00000+0  38845-3 0  9996","line2":"2 45663  53.0234 355.4491 0004097 129.9048 230.2319 15.46549028331480","mean_motion":15.46549028,"eccentricity":0.0004097,"inclination_deg":53.0234,"raan_deg":355.4491,"arg_perigee_deg":129.9048,"mean_anomaly_deg":230.2319,"bstar":0.00038845,"rev_number":33148,"period_min":93.11053021463,"perigee_km":424.04236424943,"apogee_km":429.6183545037,"semimajor_km":6804.9673593766,"source":"CELESTRAK","updated_at":"2026-05-25T13:38:16.426509Z"}}}